Find Kosmos-2448

NORAD ID: 33468 Int'l Des: 2008-067 Owner: KVR/IACG Country: RU Constellation: GLONASS operational
MEOCIRCULAR

リアルタイム位置

3D地球を読み込み中...

Kosmos-2448について

説明を読み込み中...

次回通過

Passes for default location (London). Set your location on the main map for personalized predictions.

高度履歴

Loading altitude history...

軌道要素

1 33468U 08067C 26105.21287691 .00000025 00000-0 00000+0 0 9991
2 33468 64.7795 71.4421 0002745 248.5156 111.4394 2.13116672134697
Epoch: Apr 15, 2026 • Age: 21 hours

現在のステータス

高度 19140.5 km
速度 3.95 km/s
衛星直下点 -42.55°S, 169.77°E
打ち上げ日 Dec 25, 2008
運用期間 17.3 years
タイプ other

技術仕様

分類 Payload
質量 1450.00 kg
乾燥質量 1200.00 kg
総質量 1450.00 kg
長さ 4.00 m
直径 1.50 m
スパン 7.80 m
形状 Cyl + Ant + 2 Pan
製造者 RESH
バスタイプ Uragan
フェーズステータス In Orbit
所有者/国 KVR/IACG/RU

Most Searched